User: anonymous   Login
Location: Belvedere Heights
(33.9836°N, 117.3109°W)
Time: 11:26:12
(UTC+00:00)
Language:

GEOS 3 Rocket - Orbit

View from above orbital plane
View from above orbital plane
View from above satellite
View from above satellite

Ground track
Ground track

The orbit data is extracted from the following two-line orbital elements,

1  7735U 75027B   23267.19809639  .00000180  00000-0  15024-3 0  9992
2  7735 114.9746  50.6397 0055354 259.0646 100.4203 14.24903062516441
Epoch (UTC): 24 September 2023 04:45:15
Eccentricity: 0.0055354
inclination: 114.9746°
perigee height: 769 km
apogee height: 848 km
right ascension of ascending node: 50.6397°
argument of perigee: 259.0646°
revolutions per day: 14.24903062
mean anomaly at epoch: 100.4203°
orbit number at epoch: 51644

The dashed part of the orbit path shows where the satellite is in the earth's shadow,  

DLR